Miscellaneous Local Product
Issued by NWS Hastings, NE

Home | Current Version | Previous Version | Text Only | Print | Product List | Glossary Off
Versions: 1 2 3 4 5 6 7 8 9 10 11 12 13 14 15 16 17 18 19 20 21 22 23 24 25 26 27 28 29 30 31 32 33 34 35 36 37 38 39 40 41 42 43 44 45 46 47 48 49 50

000
AXUS43 KGID 280602
MISGRI

GID CWA HOURLY WEATHER ROUNDUP
NATIONAL WEATHER SERVICE HASTINGS NE
100 AM CDT WED JUN 28 2017

NOTE: "FAIR" INDICATES FEW OR NO CLOUDS BELOW 12,000 FEET WITH NO
SIGNIFICANT WEATHER AND/OR OBSTRUCTIONS TO VISIBILITY.

...SOUTH CENTRAL NEBRASKA...

CITY           SKY/WX    TMP DP  RH WIND       PRES   REMARKS
GRAND ISLAND   CLOUDY    66  65  96 E9        29.74F
HASTINGS       CLOUDY    69  64  84 E9        29.73F
KEARNEY        CLOUDY    66  63  88 N8        29.75R
ORD            RAIN      68  59  73 W21G36    29.79R
YORK           TSTM      64  64 100 NW14G25   29.81R
AURORA         CLOUDY    65  64  98 NE7       29.74F
LEXINGTON      CLOUDY    70  63  79 N6        29.75F
HOLDREGE       CLOUDY    68  63  82 N17G31    29.75R
HEBRON         CLOUDY    80  66  62 S20G33    29.72S

...NEBRASKA PANHANDLE...

CITY           SKY/WX    TMP DP  RH WIND       PRES   REMARKS
CHADRON        CLOUDY    63  51  65 NW12G22   29.76S
ALLIANCE       CLOUDY    57  53  86 W8        29.79S
SCOTTSBLUFF    CLEAR     58  52  80 W6        29.83R
SIDNEY         CLOUDY    55  52  89 CALM      29.86R

...WESTERN AND NORTH CENTRAL NEBRASKA...

CITY           SKY/WX    TMP DP  RH WIND       PRES   REMARKS
VALENTINE      NOT AVBL
AINSWORTH      LGT RAIN  63  60  91 W8        29.71F
ONEILL         LGT RAIN  69  65  88 W10       29.70R
BROKEN BOW     CLOUDY    65  60  84 NE5       29.72F
IMPERIAL       PTCLDY    67  54  63 N3        29.78R
NORTH PLATTE   LGT RAIN  66  62  87 MISG      29.77F
MCCOOK         CLOUDY    78  56  46 NE16G25   29.74R

...EASTERN NEBRASKA...

CITY           SKY/WX    TMP DP  RH WIND       PRES   REMARKS
NORFOLK        TSTM      67  61  81 SW21G29   29.68F
SO SIOUX CITY  CLOUDY    74  66  76 S20G36    29.63F
TEKAMAH        CLOUDY    77  64  64 S24G36    29.67F
COLUMBUS       TSTM      66  63  90 SW6       29.77F
ALBION         LGT RAIN  68  61  79 SW5       29.71F
OMAHA EPPLEY   CLOUDY    76  65  68 S24G35    29.72F
OFFUTT AFB     CLOUDY    75  65  71 SE18G28   29.73F
MILLARD        CLOUDY    76  68  74 S18       29.72F
LINCOLN        CLOUDY    78  65  63 W25G32    29.83R
NEBRASKA CITY  CLOUDY    73  68  83 S20G25    29.78F
BEATRICE       CLOUDY    77  65  66 S17G25    29.74F
FALLS CITY     PTCLDY    74  65  73 S17G26    29.79F

...NORTHERN KANSAS...

CITY           SKY/WX    TMP DP  RH WIND       PRES   REMARKS
GOODLAND       CLOUDY    68  59  73 SE17      29.78R
HILL CITY      TSTM      71  64  78 SE10      29.82R
NORTON         LGT RAIN  75  50  41 S18G30    29.77R
PHILLIPSBURG   TSTM      82  61  47 S8        29.78R
SMITH CENTER   CLEAR     81  61  50 W8        29.80R
HAYS           CLOUDY    81  63  54 S23G30    29.77R
RUSSELL        CLOUDY    82  62  50 S25G38    29.75R
CONCORDIA      MOCLDY    79  66  64 S23G33    29.74F
SALINA         PTCLDY    82  64  54 S21G33    29.79R
TOPEKA         PTCLDY    76  65  68 S14G22    29.85R



USA.gov is the U.S. government's official web portal to all federal, state and local government web resources and services.